| time (UTC) | temp F | wind direction | speed MPH | gust MPH | rain 1hr in | rain 24hr in | rain mn in | humidity % | barometer mb |
| 20260505013902 | 65 | 172 | 3.0 | 5.0 | 0.00 | 0.04 | 0.04 | 75 | 998.5 |
| 20260505013358 | 65 | 184 | 2.0 | 5.0 | 0.00 | 0.04 | 0.04 | 74 | 998.3 |
| 20260505012857 | 65 | 180 | 2.0 | 3.0 | 0.00 | 0.04 | 0.04 | 74 | 998.1 |
| 20260505012354 | 66 | 183 | 4.0 | 5.0 | 0.00 | 0.04 | 0.04 | 73 | 998.1 |
| 20260505011850 | 66 | 196 | 2.0 | 2.0 | 0.00 | 0.04 | 0.04 | 72 | 998.0 |
| 20260505011347 | 66 | 232 | 3.0 | 5.0 | 0.00 | 0.04 | 0.04 | 69 | 998.2 |
| 20260505010843 | 66 | 168 | 3.0 | 7.0 | 0.00 | 0.04 | 0.04 | 67 | 998.1 |
| 20260505010339 | 67 | 235 | 1.0 | 1.0 | 0.00 | 0.04 | 0.04 | 64 | 998.4 |
| 20260505005836 | 67 | 184 | 2.0 | 5.0 | 0.00 | 0.04 | 0.04 | 64 | 998.2 |
| 20260505005333 | 67 | 195 | 6.0 | 9.0 | 0.00 | 0.04 | 0.04 | 63 | 998.1 |
| 20260505004830 | 67 | 204 | 1.0 | 1.0 | 0.00 | 0.04 | 0.04 | 63 | 997.9 |
| 20260505004326 | 67 | 211 | 3.0 | 3.0 | 0.00 | 0.04 | 0.04 | 62 | 997.7 |
| 20260505003824 | 68 | 225 | 2.0 | 3.0 | 0.00 | 0.04 | 0.04 | 61 | 997.5 |
| 20260505003321 | 68 | 203 | 1.0 | 2.0 | 0.00 | 0.04 | 0.04 | 60 | 997.1 |
| 20260505002817 | 69 | 203 | 4.0 | 5.0 | 0.00 | 0.04 | 0.04 | 56 | 997.1 |
| 20260505002314 | 70 | 184 | 3.0 | 6.0 | 0.00 | 0.04 | 0.04 | 53 | 997.0 |
| 20260505001812 | 70 | 203 | 3.0 | 5.0 | 0.00 | 0.04 | 0.04 | 52 | 997.0 |
| 20260505001309 | 71 | 220 | 1.0 | 1.0 | 0.00 | 0.04 | 0.04 | 52 | 997.0 |
| 20260505000806 | 71 | 301 | 2.0 | 3.0 | 0.00 | 0.04 | 0.04 | 52 | 997.0 |
| 20260505000304 | 71 | 270 | 1.0 | 1.0 | 0.00 | 0.04 | 0.04 | 52 | 996.9 |
| 20260504235800 | 71 | 209 | 2.0 | 2.0 | 0.00 | 0.04 | 0.04 | 51 | 996.9 |
| 20260504235256 | 72 | 248 | 4.0 | 5.0 | 0.00 | 0.04 | 0.04 | 49 | 997.0 |
| 20260504234754 | 71 | 196 | 2.0 | 2.0 | 0.00 | 0.04 | 0.04 | 50 | 996.7 |
| 20260504234252 | 71 | 215 | 0.0 | 1.0 | 0.00 | 0.04 | 0.04 | 51 | 996.6 |
| 20260504233748 | 71 | 192 | 0.0 | 1.0 | 0.00 | 0.04 | 0.04 | 53 | 996.7 |
| 20260504233243 | 72 | 272 | 1.0 | 1.0 | 0.00 | 0.04 | 0.04 | 48 | 996.9 |
| 20260504232740 | 71 | 282 | 3.0 | 3.0 | 0.00 | 0.04 | 0.04 | 49 | 997.0 |
| 20260504232237 | 71 | 295 | 2.0 | 2.0 | 0.00 | 0.04 | 0.04 | 52 | 996.5 |
| 20260504231734 | 70 | 263 | 2.0 | 3.0 | 0.00 | 0.04 | 0.04 | 56 | 996.9 |
| 20260504231231 | 68 | 250 | 3.0 | 3.0 | 0.00 | 0.04 | 0.04 | 59 | 997.2 |
| 20260504230726 | 66 | 185 | 1.0 | 2.0 | 0.00 | 0.04 | 0.04 | 71 | 997.4 |
| 20260504230226 | 64 | 248 | 1.0 | 2.0 | 0.00 | 0.04 | 0.04 | 73 | 997.8 |
| 20260504225724 | 64 | 221 | 0.0 | 1.0 | 0.00 | 0.04 | 0.04 | 75 | 998.0 |
| 20260504225220 | 64 | 245 | 1.0 | 2.0 | 0.00 | 0.04 | 0.04 | 75 | 997.8 |
| 20260504224717 | 63 | 241 | 2.0 | 2.0 | 0.12 | 0.04 | 0.04 | 78 | 998.1 |
| 20260504224214 | 66 | 286 | 2.0 | 2.0 | 0.24 | 0.04 | 0.04 | 72 | 997.4 |
| 20260504223710 | 70 | 215 | 2.0 | 3.0 | 0.17 | 0.03 | 0.03 | 66 | 998.4 |
| 20260504223206 | 76 | 35 | 5.0 | 7.0 | 0.00 | 0.00 | 0.00 | 46 | 998.5 |
| 20260504222703 | 76 | 222 | 1.0 | 2.0 | 0.00 | 0.00 | 0.00 | 40 | 997.7 |
| 20260504222200 | 77 | 288 | 2.0 | 2.0 | 0.00 | 0.00 | 0.00 | 39 | 997.5 |
| 20260504221657 | 78 | 326 | 2.0 | 2.0 | 0.00 | 0.00 | 0.00 | 39 | 997.3 |
| 20260504221155 | 79 | 287 | 2.0 | 2.0 | 0.00 | 0.00 | 0.00 | 38 | 997.4 |
| 20260504220650 | 78 | 246 | 2.0 | 2.0 | 0.00 | 0.00 | 0.00 | 36 | 997.6 |
| 20260504220149 | 77 | 252 | 2.0 | 2.0 | 0.00 | 0.00 | 0.00 | 36 | 997.4 |
| 20260504215644 | 77 | 260 | 3.0 | 5.0 | 0.00 | 0.00 | 0.00 | 36 | 997.7 |
| 20260504215142 | 78 | 260 | 3.0 | 5.0 | 0.00 | 0.00 | 0.00 | 38 | 997.5 |
| 20260504214638 | 78 | 234 | 2.0 | 3.0 | 0.00 | 0.00 | 0.00 | 36 | 997.7 |
| 20260504214134 | 79 | 170 | 3.0 | 6.0 | 0.00 | 0.00 | 0.00 | 35 | 997.7 |
| 20260504213631 | 81 | 320 | 5.0 | 6.0 | 0.00 | 0.00 | 0.00 | 33 | 997.5 |
| 20260504213127 | 80 | 276 | 3.0 | 5.0 | 0.00 | 0.00 | 0.00 | 33 | 997.8 |
| 20260504212624 | 79 | 263 | 4.0 | 6.0 | 0.00 | 0.00 | 0.00 | 34 | 997.8 |
| 20260504212121 | 79 | 283 | 1.0 | 2.0 | 0.00 | 0.00 | 0.00 | 35 | 997.9 |
| 20260504211619 | 78 | 292 | 5.0 | 9.0 | 0.00 | 0.00 | 0.00 | 34 | 997.6 |
| 20260504211114 | 79 | 271 | 0.0 | 0.0 | 0.00 | 0.00 | 0.00 | 35 | 997.9 |
| 20260504210613 | 79 | 186 | 1.0 | 1.0 | 0.00 | 0.00 | 0.00 | 34 | 997.5 |
| 20260504210108 | 80 | 305 | 2.0 | 3.0 | 0.00 | 0.00 | 0.00 | 33 | 997.7 |
| 20260504205606 | 80 | 288 | 5.0 | 6.0 | 0.00 | 0.00 | 0.00 | 31 | 998.1 |
| 20260504205104 | 79 | 224 | 3.0 | 3.0 | 0.00 | 0.00 | 0.00 | 31 | 998.2 |
| 20260504204602 | 80 | 255 | 2.0 | 3.0 | 0.00 | 0.00 | 0.00 | 34 | 998.0 |
| 20260504204100 | 81 | 297 | 5.0 | 7.0 | 0.00 | 0.00 | 0.00 | 30 | 998.1 |
| 20260504203559 | 81 | 189 | 5.0 | 8.0 | 0.00 | 0.00 | 0.00 | 29 | 998.2 |
| 20260504203056 | 81 | 255 | 0.0 | 1.0 | 0.00 | 0.00 | 0.00 | 33 | 997.9 |
| 20260504202551 | 81 | 263 | 2.0 | 2.0 | 0.00 | 0.00 | 0.00 | 34 | 998.4 |
| 20260504202048 | 80 | 262 | 1.0 | 3.0 | 0.00 | 0.00 | 0.00 | 32 | 998.3 |
| 20260504201545 | 80 | 241 | 3.0 | 3.0 | 0.00 | 0.00 | 0.00 | 31 | 998.5 |
| 20260504201043 | 80 | 257 | 6.0 | 8.0 | 0.00 | 0.00 | 0.00 | 32 | 998.4 |
| 20260504200539 | 80 | 258 | 2.0 | 3.0 | 0.00 | 0.00 | 0.00 | 37 | 998.3 |
| 20260504200036 | 80 | 183 | 5.0 | 7.0 | 0.00 | 0.00 | 0.00 | 33 | 998.5 |
| 20260504195532 | 80 | 243 | 6.0 | 9.0 | 0.00 | 0.00 | 0.00 | 32 | 998.5 |
| 20260504195029 | 80 | 239 | 3.0 | 5.0 | 0.00 | 0.00 | 0.00 | 33 | 998.7 |
| 20260504194525 | 80 | 269 | 4.0 | 6.0 | 0.00 | 0.00 | 0.00 | 33 | 999.1 |
| 20260504194020 | 80 | 184 | 5.0 | 8.0 | 0.00 | 0.00 | 0.00 | 32 | 999.2 |
| 20260504193518 | 80 | 180 | 3.0 | 3.0 | 0.00 | 0.00 | 0.00 | 34 | 999.2 |
| 20260504193017 | 80 | 266 | 4.0 | 7.0 | 0.00 | 0.00 | 0.00 | 35 | 999.3 |
| 20260504192514 | 78 | 175 | 0.0 | 1.0 | 0.00 | 0.00 | 0.00 | 37 | 999.1 |
| 20260504192012 | 78 | 257 | 10.0 | 13.0 | 0.00 | 0.00 | 0.00 | 34 | 999.1 |
| 20260504191510 | 79 | 309 | 5.0 | 7.0 | 0.00 | 0.00 | 0.00 | 36 | 998.9 |
| 20260504191005 | 78 | 171 | 3.0 | 5.0 | 0.00 | 0.00 | 0.00 | 37 | 999.2 |
| 20260504190501 | 78 | 279 | 8.0 | 9.0 | 0.00 | 0.00 | 0.00 | 36 | 999.0 |
| 20260504185958 | 79 | 265 | 4.0 | 6.0 | 0.00 | 0.00 | 0.00 | 37 | 999.2 |
| 20260504185455 | 78 | 248 | 2.0 | 2.0 | 0.00 | 0.00 | 0.00 | 39 | 999.3 |
| 20260504184951 | 77 | 267 | 4.0 | 5.0 | 0.00 | 0.00 | 0.00 | 40 | 999.3 |
| 20260504184447 | 78 | 177 | 4.0 | 7.0 | 0.00 | 0.00 | 0.00 | 36 | 999.2 |
| 20260504183943 | 78 | 259 | 4.0 | 6.0 | 0.00 | 0.00 | 0.00 | 39 | 999.1 |
| 20260504183440 | 78 | 224 | 3.0 | 3.0 | 0.00 | 0.00 | 0.00 | 37 | 999.3 |
| 20260504182938 | 78 | 266 | 5.0 | 6.0 | 0.00 | 0.00 | 0.00 | 35 | 999.3 |
| 20260504182435 | 77 | 228 | 3.0 | 5.0 | 0.00 | 0.00 | 0.00 | 35 | 999.2 |
| 20260504181932 | 77 | 298 | 2.0 | 2.0 | 0.00 | 0.00 | 0.00 | 37 | 999.4 |
| 20260504181429 | 77 | 264 | 3.0 | 3.0 | 0.00 | 0.00 | 0.00 | 38 | 999.5 |
| 20260504180928 | 77 | 190 | 9.0 | 11.0 | 0.00 | 0.00 | 0.00 | 35 | 999.1 |
| 20260504180426 | 77 | 237 | 7.0 | 8.0 | 0.00 | 0.00 | 0.00 | 37 | 999.4 |
| 20260504175924 | 76 | 233 | 5.0 | 6.0 | 0.00 | 0.00 | 0.00 | 35 | 999.5 |
| 20260504175421 | 75 | 271 | 4.0 | 5.0 | 0.00 | 0.00 | 0.00 | 38 | 999.5 |
| 20260504174918 | 75 | 311 | 5.0 | 8.0 | 0.00 | 0.00 | 0.00 | 37 | 999.7 |
| 20260504174416 | 75 | 126 | 5.0 | 6.0 | 0.00 | 0.00 | 0.00 | 40 | 999.6 |
| 20260504173913 | 77 | 289 | 2.0 | 2.0 | 0.00 | 0.00 | 0.00 | 41 | 999.8 |
| 20260504173409 | 76 | 264 | 2.0 | 2.0 | 0.00 | 0.00 | 0.00 | 40 | 999.9 |
| 20260504172907 | 75 | 167 | 3.0 | 5.0 | 0.00 | 0.00 | 0.00 | 40 | 999.9 |
| 20260504172403 | 75 | 230 | 5.0 | 6.0 | 0.00 | 0.00 | 0.00 | 41 | 1000.0 |
| 20260504171859 | 75 | 208 | 1.0 | 2.0 | 0.00 | 0.00 | 0.00 | 43 | 1000.0 |
| 20260504171356 | 74 | 305 | 3.0 | 5.0 | 0.00 | 0.00 | 0.00 | 45 | 1000.1 |
| 20260504170853 | 74 | 257 | 4.0 | 7.0 | 0.00 | 0.00 | 0.00 | 42 | 1000.4 |
| 20260504170350 | 75 | 294 | 7.0 | 10.0 | 0.00 | 0.00 | 0.00 | 42 | 1000.4 |
| 20260504160309 | 73 | 208 | 3.0 | 5.0 | 0.00 | 0.00 | 0.00 | 43 | 1001.1 |
| 20260504150734 | 70 | 235 | 7.0 | 9.0 | 0.00 | 0.00 | 0.00 | 45 | 1002.0 |
| 20260504150230 | 69 | 161 | 7.0 | 8.0 | 0.00 | 0.00 | 0.00 | 47 | 1002.0 |
| 20260504141200 | 67 | 217 | 1.0 | 1.0 | 0.00 | 0.00 | 0.00 | 52 | 1002.3 |
| 20260504140656 | 66 | 179 | 3.0 | 5.0 | 0.00 | 0.00 | 0.00 | 49 | 1002.4 |
| 20260504140152 | 66 | 238 | 2.0 | 2.0 | 0.00 | 0.00 | 0.00 | 51 | 1002.3 |
| 20260504130620 | 60 | 151 | 1.0 | 2.0 | 0.00 | 0.00 | 0.00 | 62 | 1003.1 |
| 20260504130117 | 59 | 206 | 2.0 | 2.0 | 0.00 | 0.00 | 0.00 | 63 | 1003.2 |
| 20260504110509 | 50 | 250 | 1.0 | 2.0 | 0.00 | 0.00 | 0.00 | 79 | 1002.8 |
| 20260504100424 | 49 | 266 | 1.0 | 1.0 | 0.00 | 0.00 | 0.00 | 81 | 1003.2 |
| 20260504081812 | 48 | 263 | 0.0 | 0.0 | 0.00 | 0.00 | 0.00 | 85 | 1003.2 |
| 20260504081309 | 48 | 255 | 0.0 | 0.0 | 0.00 | 0.00 | 0.00 | 86 | 1003.5 |
| 20260504080805 | 48 | 250 | 0.0 | 0.0 | 0.00 | 0.00 | 0.00 | 85 | 1003.3 |
| 20260504080302 | 49 | 248 | 0.0 | 0.0 | 0.00 | 0.00 | 0.00 | 85 | 1003.4 |
| 20260504070229 | 52 | 250 | 1.0 | 1.0 | 0.00 | 0.00 | 0.00 | 79 | 1004.4 |
| 20260504060149 | 56 | 204 | 0.0 | 1.0 | 0.00 | 0.00 | 0.00 | 73 | 1005.0 |
| 20260504050617 | 58 | 231 | 1.0 | 1.0 | 0.00 | 0.00 | 0.00 | 68 | 1005.2 |
| 20260504050115 | 58 | 245 | 1.0 | 1.0 | 0.00 | 0.00 | 0.00 | 68 | 1005.0 |
| 20260504045612 | 58 | 275 | 1.0 | 1.0 | 0.00 | 0.00 | 0.00 | 68 | 1005.0 |
| 20260504045106 | 58 | 210 | 0.0 | 1.0 | 0.00 | 0.00 | 0.00 | 67 | 1004.9 |
| 20260504044604 | 58 | 235 | 3.0 | 6.0 | 0.00 | 0.00 | 0.00 | 68 | 1005.0 |
| 20260504044101 | 59 | 247 | 2.0 | 2.0 | 0.00 | 0.00 | 0.00 | 67 | 1004.8 |
| 20260504043558 | 58 | 199 | 3.0 | 3.0 | 0.00 | 0.00 | 0.00 | 68 | 1005.3 |
| 20260504043055 | 58 | 242 | 2.0 | 2.0 | 0.00 | 0.00 | 0.00 | 69 | 1005.0 |
| 20260504042552 | 58 | 238 | 0.0 | 0.0 | 0.00 | 0.00 | 0.00 | 68 | 1005.1 |
| 20260504042049 | 58 | 235 | 2.0 | 2.0 | 0.00 | 0.00 | 0.00 | 69 | 1005.1 |
| 20260504041545 | 58 | 242 | 1.0 | 2.0 | 0.00 | 0.00 | 0.00 | 68 | 1005.1 |
| 20260504041041 | 58 | 221 | 0.0 | 1.0 | 0.00 | 0.00 | 0.00 | 69 | 1005.1 |
| 20260504040539 | 58 | 275 | 2.0 | 3.0 | 0.00 | 0.00 | 0.00 | 68 | 1005.1 |
| 20260504040035 | 58 | 215 | 1.0 | 1.0 | 0.00 | 0.00 | 0.00 | 68 | 1005.1 |
| 20260504035532 | 58 | 207 | 2.0 | 2.0 | 0.00 | 0.00 | 0.00 | 68 | 1005.0 |
| 20260504035028 | 59 | 345 | 1.0 | 1.0 | 0.00 | 0.00 | 0.00 | 68 | 1005.1 |
| 20260504034526 | 59 | 285 | 1.0 | 2.0 | 0.00 | 0.00 | 0.00 | 67 | 1005.3 |
| 20260504034023 | 59 | 216 | 1.0 | 1.0 | 0.00 | 0.00 | 0.00 | 67 | 1005.2 |
| 20260504033521 | 58 | 175 | 3.0 | 3.0 | 0.00 | 0.00 | 0.00 | 68 | 1005.2 |
| 20260504033018 | 59 | 210 | 0.0 | 0.0 | 0.00 | 0.00 | 0.00 | 68 | 1005.4 |
| 20260504032515 | 59 | 206 | 0.0 | 0.0 | 0.00 | 0.00 | 0.00 | 67 | 1005.3 |
| 20260504032012 | 59 | 212 | 3.0 | 6.0 | 0.00 | 0.00 | 0.00 | 66 | 1005.4 |
| 20260504031509 | 59 | 215 | 1.0 | 2.0 | 0.00 | 0.00 | 0.00 | 66 | 1005.5 |
| 20260504031005 | 59 | 218 | 2.0 | 2.0 | 0.00 | 0.00 | 0.00 | 66 | 1005.5 |
| 20260504030503 | 59 | 201 | 1.0 | 1.0 | 0.00 | 0.00 | 0.00 | 66 | 1005.5 |
| 20260504025958 | 60 | 164 | 0.0 | 1.0 | 0.00 | 0.00 | 0.00 | 65 | 1005.7 |
| 20260504025455 | 60 | 106 | 2.0 | 3.0 | 0.00 | 0.00 | 0.00 | 65 | 1005.5 |
| 20260504024952 | 60 | 201 | 2.0 | 3.0 | 0.00 | 0.00 | 0.00 | 64 | 1005.4 |
| 20260504024449 | 60 | 208 | 1.0 | 1.0 | 0.00 | 0.00 | 0.00 | 64 | 1005.3 |
| 20260504023946 | 60 | 242 | 4.0 | 6.0 | 0.00 | 0.00 | 0.00 | 64 | 1005.5 |
| 20260504023443 | 60 | 199 | 1.0 | 1.0 | 0.00 | 0.00 | 0.00 | 64 | 1005.5 |
| 20260504022938 | 60 | 200 | 0.0 | 0.0 | 0.00 | 0.00 | 0.00 | 63 | 1005.6 |
| 20260504022434 | 60 | 210 | 0.0 | 0.0 | 0.00 | 0.00 | 0.00 | 63 | 1005.7 |
| 20260504021926 | 60 | 197 | 0.0 | 0.0 | 0.00 | 0.00 | 0.00 | 63 | 1005.6 |
| 20260504021423 | 60 | 212 | 0.0 | 0.0 | 0.00 | 0.00 | 0.00 | 64 | 1005.4 |
| 20260504020920 | 59 | 208 | 0.0 | 0.0 | 0.00 | 0.00 | 0.00 | 64 | 1005.4 |
| 20260504020417 | 59 | 202 | 0.0 | 0.0 | 0.00 | 0.00 | 0.00 | 64 | 1005.5 |
| 20260504015914 | 59 | 202 | 0.0 | 0.0 | 0.00 | 0.00 | 0.00 | 63 | 1005.4 |
| 20260504015409 | 59 | 201 | 0.0 | 0.0 | 0.00 | 0.00 | 0.00 | 64 | 1005.1 |
| 20260504014905 | 60 | 205 | 0.0 | 0.0 | 0.00 | 0.00 | 0.00 | 64 | 1005.3 |
| 20260504014401 | 60 | 206 | 0.0 | 1.0 | 0.00 | 0.00 | 0.00 | 63 | 1005.3 |